Flag for Colombia Weather past 2 weeks in Cali, Colombia

Now
81 °F

Passing clouds.


Feels Like: 83 °F
Forecast: 71 / 85 °F
Wind: 9 mph from Northwest

Location: Cali / Alfonso Bonillaaragon

Current Time: Sep 2, 2015 at 7:43:18 PM

Latest Report: Sep 2, 2015 at 7:00 PM


Visibility: N/A

Pressure: 29.88 "Hg (26.80 "Hg at 955m altitude)

Humidity: 62%

Dew point: 66 °F

Location of CaliLocation

Historic Weather in Cali — Graph

°F

Cali temperature yesterday

Maximum temperature yesterday: 88 °F (at 12:00 PM)
Minimum temperature yesterday: 70 °F (at 3:00 AM)
Average temperature yesterday: 77 °F

Past Weeks' High & Low Weather Summary

 TemperatureHumidityPressure
High95 °F (Aug 20, 2:00 PM)100% (Aug 30, 6:00 AM)30.08 "Hg (Aug 30, 6:00 AM)
Low61 °F (Aug 30, 6:00 AM)25% (Aug 29, 2:00 PM)29.78 "Hg (Aug 28, 4:00 PM)
Average77 °F67%29.95 "Hg
* Reported Aug 18 6:00 PM — Sep 2 6:00 PM, Cali, Weather by CustomWeather, © 2015

Note: Actual official high and low records may vary slightly from our data, if they occured in-between our weather recording intervals... More about our weather records

Advertising

Cali weather history for previous 24 hours

 ConditionsComfort  
Time TempWeatherWind HumidityBarometerVisibility
6:00 PM
Wed, Sep 2
84 °FPartly sunny.14 mph55%29.86 "HgN/A
5:00 PM86 °FScattered showers. Partly sunny.14 mph52%29.85 "HgN/A
4:00 PM90 °FBroken clouds.3 mph36%29.86 "HgN/A
3:00 PM93 °FScattered clouds.5 mph32%29.88 "HgN/A
2:00 PM91 °FScattered clouds.5 mph36%29.92 "HgN/A
1:00 PM90 °FScattered clouds.5 mph41%29.96 "HgN/A
12:00 PM84 °FScattered clouds.6 mph51%30.02 "HgN/A
11:00 AM84 °FPartly sunny.2 mph51%30.05 "HgN/A
10:00 AM82 °FScattered clouds.3 mph58%30.07 "Hg6 mi
9:00 AM79 °FScattered clouds.3 mph61%30.08 "Hg5 mi
8:00 AM73 °FPartly sunny.6 mph78%30.08 "Hg5 mi
7:00 AM70 °FScattered clouds.3 mph83%30.05 "Hg6 mi
6:00 AM68 °FPartly sunny.2 mph88%30.04 "HgN/A
5:00 AM68 °FPartly cloudy.3 mph88%30.04 "HgN/A
4:00 AM68 °FPartly cloudy.3 mph88%30.02 "HgN/A
3:00 AM66 °FClear.5 mph94%30.01 "HgN/A
2:00 AM68 °FPassing clouds.7 mph88%30.02 "HgN/A
1:00 AM70 °FPassing clouds.6 mph83%30.04 "HgN/A
12:00 AM70 °FClear.7 mph83%30.04 "Hg10 mi
11:00 PM
Tue, Sep 1
70 °FClear.9 mph83%30.04 "Hg10 mi
10:00 PM73 °FClear.7 mph74%30.03 "HgN/A
9:00 PM77 °FPassing clouds.7 mph65%30.00 "HgN/A
8:00 PM77 °FPassing clouds.9 mph65%29.96 "HgN/A
7:00 PM77 °FPassing clouds.12 mph65%29.93 "HgN/A
Weather by CustomWeather, © 2015

See weather overviewHow to use our weather pages